When you browse on this site, cookies collect data to enhance your experience and personalize the content and advertising you see.
Visit our Privacy Policy to learn more. By continuing to use the site, you agree to this use of cookies and data.
  • In Latvia
  • List of Countries
  • For 7 days
  • Water Temperature
  • Weather Map
  • Weather Widgets
  • user-avatar
    Login

    Hourly Weather Ghadamis

    Today, 26 August, Monday

    Time Temperature Precipitation Wind Pressure Humidity
    00:00 +34°C° 0 mm 5 mps 730 mmHg 23%
    01:00 +33°C° 0 mm 5 mps 730 mmHg 24%
    02:00 +32°C° 0 mm 5 mps 730 mmHg 26%
    03:00 +32°C° 0 mm 4 mps 730 mmHg 27%
    04:00 +30°C° 0 mm 4 mps 730 mmHg 29%
    05:00 +30°C° 0 mm 4 mps 731 mmHg 29%
    06:00 +30°C° 0 mm 4 mps 731 mmHg 29%
    07:00 +32°C° 0 mm 4 mps 731 mmHg 29%
    08:00 +34°C° 0 mm 4 mps 731 mmHg 25%
    09:00 +37°C° 0 mm 4 mps 732 mmHg 20%
    10:00 +40°C° 0 mm 5 mps 732 mmHg 16%
    11:00 +41°C° 0 mm 4 mps 732 mmHg 15%
    12:00 +42°C° 0 mm 3 mps 732 mmHg 14%
    13:00 +44°C° 0 mm 3 mps 731 mmHg 13%
    14:00 +44°C° 0 mm 4 mps 731 mmHg 13%
    15:00 +44°C° 0 mm 4 mps 730 mmHg 12%
    16:00 +45°C° 0 mm 5 mps 730 mmHg 12%
    17:00 +42°C° 0 mm 5 mps 730 mmHg 13%
    18:00 +41°C° 0 mm 5 mps 730 mmHg 15%
    19:00 +40°C° 0 mm 5 mps 730 mmHg 16%
    20:00 +38°C° 0 mm 7 mps 730 mmHg 17%
    21:00 +37°C° 0 mm 8 mps 731 mmHg 18%
    22:00 +36°C° 0 mm 10 mps 731 mmHg 19%
    23:00 +34°C° 0 mm 9 mps 731 mmHg 22%

    Tomorrow, 27 August, Tuesday

    Time Temperature Precipitation Wind Pressure Humidity
    00:00 +33°C° 0 mm 8 mps 731 mmHg 25%
    01:00 +32°C° 0 mm 8 mps 731 mmHg 28%
    02:00 +30°C° 0 mm 7 mps 731 mmHg 31%
    03:00 +30°C° 0 mm 6 mps 731 mmHg 34%
    04:00 +29°C° 0 mm 6 mps 731 mmHg 36%
    05:00 +29°C° 0 mm 5 mps 731 mmHg 34%
    06:00 +29°C° 0 mm 5 mps 731 mmHg 32%
    07:00 +29°C° 0 mm 4 mps 731 mmHg 31%
    08:00 +33°C° 0 mm 4 mps 732 mmHg 26%
    09:00 +36°C° 0 mm 4 mps 732 mmHg 21%
    10:00 +40°C° 0 mm 4 mps 733 mmHg 16%
    11:00 +40°C° 0 mm 3 mps 733 mmHg 15%
    12:00 +42°C° 0 mm 3 mps 732 mmHg 13%
    13:00 +42°C° 0 mm 2 mps 732 mmHg 11%
    14:00 +44°C° 0 mm 3 mps 731 mmHg 11%
    15:00 +44°C° 0 mm 4 mps 731 mmHg 10%
    16:00 +45°C° 0 mm 5 mps 730 mmHg 10%
    17:00 +42°C° 0 mm 5 mps 731 mmHg 12%
    18:00 +41°C° 0 mm 5 mps 731 mmHg 13%
    19:00 +39°C° 0 mm 5 mps 731 mmHg 15%
    20:00 +38°C° 0 mm 6 mps 731 mmHg 16%
    21:00 +35°C° 0 mm 7 mps 732 mmHg 17%
    22:00 +34°C° 0 mm 8 mps 733 mmHg 18%
    23:00 +33°C° 0 mm 8 mps 732 mmHg 23%

    Day after tomorrow, 28 August, Wednesday

    Time Temperature Precipitation Wind Pressure Humidity
    00:00 +32°C° 0 mm 7 mps 732 mmHg 29%
    01:00 +29°C° 0 mm 6 mps 732 mmHg 34%
    02:00 +29°C° 0 mm 6 mps 732 mmHg 39%
    03:00 +28°C° 0 mm 5 mps 731 mmHg 44%
    04:00 +27°C° 0 mm 5 mps 731 mmHg 48%
    05:00 +27°C° 0 mm 5 mps 731 mmHg 49%
    06:00 +27°C° 0 mm 6 mps 731 mmHg 49%
    07:00 +27°C° 0 mm 6 mps 732 mmHg 50%
    08:00 +30°C° 0 mm 6 mps 732 mmHg 41%
    09:00 +33°C° 0 mm 5 mps 732 mmHg 32%
    10:00 +36°C° 0 mm 5 mps 732 mmHg 23%
    11:00 +39°C° 0 mm 5 mps 732 mmHg 20%
    12:00 +41°C° 0 mm 4 mps 732 mmHg 16%
    13:00 +42°C° 0 mm 3 mps 731 mmHg 13%
    14:00 +43°C° 0 mm 4 mps 731 mmHg 12%
    15:00 +43°C° 0 mm 5 mps 730 mmHg 10%
    16:00 +45°C° 0 mm 6 mps 730 mmHg 9%
    17:00 +42°C° 0 mm 6 mps 730 mmHg 11%
    18:00 +41°C° 0 mm 6 mps 730 mmHg 13%
    19:00 +39°C° 0 mm 6 mps 730 mmHg 15%
    20:00 +38°C° 0 mm 6 mps 730 mmHg 16%
    21:00 +35°C° 0 mm 6 mps 731 mmHg 17%
    22:00 +34°C° 0 mm 7 mps 732 mmHg 17%
    23:00 +33°C° 0 mm 6 mps 731 mmHg 22%

    29 August, Thursday

    Time Temperature Precipitation Wind Pressure Humidity
    00:00 +32°C° 0 mm 6 mps 731 mmHg 27%
    01:00 +29°C° 0 mm 5 mps 731 mmHg 31%
    02:00 +29°C° 0 mm 5 mps 731 mmHg 34%
    03:00 +29°C° 0 mm 5 mps 731 mmHg 36%
    04:00 +28°C° 0 mm 5 mps 731 mmHg 39%
    05:00 +28°C° 0 mm 5 mps 731 mmHg 37%
    06:00 +28°C° 0 mm 5 mps 731 mmHg 36%
    07:00 +29°C° 0 mm 5 mps 732 mmHg 35%
    08:00 +33°C° 0 mm 6 mps 732 mmHg 29%
    09:00 +36°C° 0 mm 6 mps 732 mmHg 24%
    10:00 +40°C° 0 mm 6 mps 732 mmHg 18%
    11:00 +41°C° 0 mm 6 mps 732 mmHg 15%
    12:00 +43°C° 0 mm 5 mps 732 mmHg 13%
    13:00 +46°C° 0 mm 5 mps 731 mmHg 11%
    14:00 +46°C° 0 mm 5 mps 731 mmHg 10%
    15:00 +46°C° 0 mm 5 mps 730 mmHg 10%
    16:00 +46°C° 0 mm 5 mps 730 mmHg 10%
    17:00 +43°C° 0 mm 5 mps 730 mmHg 11%
    18:00 +42°C° 0 mm 4 mps 730 mmHg 13%
    19:00 +40°C° 0 mm 4 mps 729 mmHg 14%
    20:00 +38°C° 0 mm 4 mps 730 mmHg 15%
    21:00 +37°C° 0 mm 5 mps 730 mmHg 17%
    22:00 +36°C° 0 mm 5 mps 731 mmHg 18%
    23:00 +35°C° 0 mm 5 mps 731 mmHg 19%

    30 August, Friday

    Time Temperature Precipitation Wind Pressure Humidity
    00:00 +34°C° 0 mm 5 mps 731 mmHg 20%
    01:00 +33°C° 0 mm 5 mps 731 mmHg 22%
    02:00 +33°C° 0 mm 5 mps 731 mmHg 23%
    03:00 +32°C° 0 mm 5 mps 730 mmHg 25%
    04:00 +30°C° 0 mm 5 mps 730 mmHg 27%
    05:00 +30°C° 0 mm 5 mps 731 mmHg 27%
    06:00 +32°C° 0 mm 5 mps 731 mmHg 27%
    07:00 +32°C° 0 mm 5 mps 731 mmHg 27%
    08:00 +35°C° 0 mm 5 mps 732 mmHg 23%
    09:00 +39°C° 0 mm 6 mps 732 mmHg 19%
    10:00 +43°C° 0 mm 7 mps 732 mmHg 15%
    11:00 +44°C° 0 mm 6 mps 732 mmHg 14%
    12:00 +44°C° 0 mm 4 mps 731 mmHg 12%
    13:00 +45°C° 0 mm 3 mps 731 mmHg 11%
    14:00 +45°C° 0 mm 3 mps 730 mmHg 11%
    15:00 +45°C° 0 mm 3 mps 730 mmHg 10%
    16:00 +45°C° 0 mm 4 mps 729 mmHg 10%
    17:00 +43°C° 0 mm 4 mps 729 mmHg 12%
    18:00 +42°C° 0 mm 4 mps 729 mmHg 13%
    19:00 +40°C° 0 mm 4 mps 729 mmHg 15%
    20:00 +39°C° 0 mm 5 mps 729 mmHg 16%
    21:00 +38°C° 0 mm 6 mps 730 mmHg 17%
    22:00 +36°C° 0 mm 6 mps 730 mmHg 18%
    23:00 +36°C° 0 mm 7 mps 730 mmHg 19%

    31 August, Saturday

    Time Temperature Precipitation Wind Pressure Humidity
    00:00 +35°C° 0 mm 7 mps 730 mmHg 21%
    01:00 +34°C° 0 mm 7 mps 730 mmHg 22%
    02:00 +33°C° 0 mm 7 mps 729 mmHg 22%
    03:00 +32°C° 0 mm 6 mps 729 mmHg 22%
    04:00 +32°C° 0 mm 5 mps 729 mmHg 22%
    05:00 +32°C° 0 mm 5 mps 729 mmHg 23%
    06:00 +32°C° 0 mm 4 mps 730 mmHg 23%
    07:00 +30°C° 0 mm 4 mps 730 mmHg 24%
    08:00 +34°C° 0 mm 4 mps 730 mmHg 20%
    09:00 +37°C° 0 mm 5 mps 730 mmHg 17%
    10:00 +41°C° 0 mm 5 mps 731 mmHg 13%
    11:00 +43°C° 0 mm 5 mps 730 mmHg 12%
    12:00 +44°C° 0 mm 4 mps 730 mmHg 11%
    13:00 +45°C° 0 mm 3 mps 729 mmHg 10%
    14:00 +45°C° 0 mm 2 mps 729 mmHg 10%
    15:00 +45°C° 0 mm 2 mps 728 mmHg 9%
    16:00 +45°C° 0 mm 2 mps 727 mmHg 9%
    17:00 +43°C° 0 mm 2 mps 727 mmHg 10%
    18:00 +41°C° 0 mm 2 mps 727 mmHg 11%
    19:00 +39°C° 0 mm 2 mps 727 mmHg 12%
    20:00 +38°C° 0 mm 3 mps 728 mmHg 13%
    21:00 +38°C° 0 mm 4 mps 728 mmHg 13%
    22:00 +37°C° 0 mm 5 mps 729 mmHg 14%
    23:00 +36°C° 0 mm 5 mps 729 mmHg 16%
    Show more